Regional Weather Roundup
Issued by NWS

Home | Current Version | Previous Version | Text Only | Print | Product List | Glossary On
Versions: 1 2 3 4 5 6 7 8 9 10 11 12 13 14 15 16 17 18 19 20 21 22 23 24 25 26 27 28 29 30 31 32 33 34 35 36 37 38 39 40 41 42 43 44 45 46 47 48 49 50
000
ASUS46 KSEW 011210
RWRWA

WASHINGTON REGIONAL WEATHER ROUNDUP
NATIONAL WEATHER SERVICE SEATTLE WA
400 AM PST SUN FEB 01 2015

NOTE:"FAIR" INDICATES FEW OR NO CLOUDS BELOW 12,000 FEET WITH NO
SIGNIFICANT WEATHER AND/OR OBSTRUCTIONS TO VISIBILITY.

WAZ505-507>509-011300-
SEATTLE, TACOMA, EVERETT, AND VICINITY

CITY           SKY/WX    TMP DP  RH WIND       PRES   REMARKS
EVERETT        CLOUDY    45  35  68 S6        30.07R
6HR MIN TEMP:  41; 6HR MAX TEMP:  48; 6HR PCP: TRACE;

BOEING FIELD   CLOUDY    44  39  82 SE8       30.09S HAZE
6HR MIN TEMP:  43; 6HR MAX TEMP:  47;

RENTON         CLOUDY    42  41  96 CALM      30.09S FOG
6HR MIN TEMP:  41; 6HR MAX TEMP:  44;

SEATAC AIRPORT CLOUDY    43  41  93 S6        30.09R FOG
6HR MIN TEMP:  40; 6HR MAX TEMP:  43;

JBLM-MCCHORD   CLOUDY    40  40 100 S2        30.09S FOG
6HR MIN TEMP:  40; 6HR MAX TEMP:  42;

PUYALLUP       CLOUDY    39  39 100 CALM      30.09F FOG
BREMERTON      CLOUDY    39  39 100 CALM      30.08F
6HR MIN TEMP:  39; 6HR MAX TEMP:  45;

JBLM-FT LEWIS  FOG       40  40  99 E2        30.08F VSB 1
6HR MIN TEMP:  40; 6HR MAX TEMP:  42;

TACOMA NARROWS CLOUDY    42  40  92 S7        30.08F
6HR MIN TEMP:  41; 6HR MAX TEMP:  43;

$$

WAZ001-503-506-510-514-515-011300-
NORTH INTERIOR

CITY           SKY/WX    TMP DP  RH WIND       PRES   REMARKS
BELLINGHAM     CLOUDY    41  39  93 CALM      30.06R
6HR MIN TEMP:  40; 6HR MAX TEMP:  43; 6HR PCP:  0.02;

FRIDAY HARBOR  CLOUDY    43  41  93 NW5       30.07S
6HR MIN TEMP:  42; 6HR MAX TEMP:  44; 6HR PCP: TRACE;

EASTSOUND      CLOUDY    45  43  93 CALM      30.06S
PORT ANGELES   CLOUDY    42  40  92 MISG      30.05F
6HR MIN TEMP:  41; 6HR MAX TEMP:  43; 6HR PCP: TRACE;

NAS WHIDBEY    CLOUDY    43  40  89 CALM      30.07F
6HR MIN TEMP:  43; 6HR MAX TEMP:  46; 6HR PCP:  0.02;

ARLINGTON      CLOUDY    39  36  87 CALM      30.09R
6HR MIN TEMP:  37; 6HR MAX TEMP:  43;

BURLINGTON     PTCLDY    43 N/A N/A CALM      30.08S
$$

WAZ020-022-039-040-504-511-512-011300-
SOUTHWEST INTERIOR

CITY           SKY/WX    TMP DP  RH WIND       PRES   REMARKS
SHELTON        CLOUDY    40  40 100 CALM      30.05F FOG
6HR MIN TEMP:  38; 6HR MAX TEMP:  43; 6HR PCP: TRACE;

OLYMPIA        CLOUDY    40  39  97 SW3       30.08F
6HR MIN TEMP:  40; 6HR MAX TEMP:  43;

CHEHALIS       PTSUNNY   41  41 100 S12       30.07F
KELSO          CLOUDY    43  34  70 SE8       30.15F
6HR MIN TEMP:  39; 6HR MAX TEMP:  43; 6HR PCP:  0.01;

VANCOUVER      LGT RAIN  42  33  70 SE8       30.13F
6HR MIN TEMP:  35; 6HR MAX TEMP:  42; 6HR PCP: TRACE;

SCAPPOOSE, OR  CLOUDY    43  33  68 S3        30.13S
6HR MIN TEMP:  35; 6HR MAX TEMP:  43; 6HR PCP: TRACE;

PORTLAND, OR   LGT RAIN  42  35  76 E14       30.14F
6HR MIN TEMP:  40; 6HR MAX TEMP:  43; 6HR PCP: TRACE;

$$

WAZ021-516-517-011300-
WASHINGTON COAST

CITY           SKY/WX    TMP DP  RH WIND       PRES   REMARKS
FORKS          CLOUDY    44  43  96 S5        29.99F
6HR MIN TEMP:  44; 6HR MAX TEMP:  48; 6HR PCP:  0.01;

HOQUIAM        CLOUDY    44  41  89 E10       30.03F
6HR MIN TEMP:  44; 6HR MAX TEMP:  45; 6HR PCP: TRACE;

ASTORIA, OR    CLOUDY    44  39  82 E6        30.02F
6HR MIN TEMP:  42; 6HR MAX TEMP:  45; 6HR PCP:  0.01;

$$

WAZ019-023-024-040-518-519-011300-
CASCADE MOUNTAINS AND COLUMBIA GORGE

CITY           SKY/WX    TMP DP  RH WIND       PRES   REMARKS
TROUTDALE, OR  CLOUDY    42  32  67 E24G32    30.13F
6HR MIN TEMP:  42; 6HR MAX TEMP:  43;

THE DALLES, OR CLOUDY    38  34  85 CALM      30.30S
6HR MIN TEMP:  38; 6HR MAX TEMP:  39;

$$

WAZ026-027-041>044-520-521-011300-
EAST SLOPES

CITY           SKY/WX    TMP DP  RH WIND       PRES   REMARKS
OMAK           LGT SNOW  32  31  96 S5        30.25S FOG
6HR MIN TEMP:  32; 6HR MAX TEMP:  34; 6HR PCP:  0.07;

WENATCHEE      CLOUDY    36  32  85 CALM      30.24F
6HR MIN TEMP:  36; 6HR MAX TEMP:  37; 6HR PCP: TRACE;

ELLENSBURG     CLOUDY    35  31  85 S3        30.23R
6HR MIN TEMP:  35; 6HR MAX TEMP:  36;

YAKIMA         CLOUDY    36  33  89 W6        30.26S
6HR MIN TEMP:  36; 6HR MAX TEMP:  37;

$$

WAZ028-034-035-011300-
COLUMBIA BASIN

CITY           SKY/WX    TMP DP  RH WIND       PRES   REMARKS
EPHRATA        CLOUDY    35  31  85 N6        30.23F
6HR MIN TEMP:  35; 6HR MAX TEMP:  36;

MOSES LAKE     CLOUDY    35  31  85 N6        30.24F
6HR MIN TEMP:  34; 6HR MAX TEMP:  36;

PASCO          CLOUDY    35  34  96 NW6       30.27F
6HR MIN TEMP:  35; 6HR MAX TEMP:  38;

HERMISTON, OR  CLOUDY    36  32  85 SE5       30.25F
6HR MIN TEMP:  36; 6HR MAX TEMP:  37;

$$

WAZ036>038-011300-
NORTHEAST WASHINGTON

CITY           SKY/WX    TMP DP  RH WIND       PRES   REMARKS
SPOKANE GEIGER CLOUDY    30  28  92 CALM      30.22F
6HR MIN TEMP:  29; 6HR MAX TEMP:  30;

SPOKANE FELTS  CLOUDY    31  27  85 E3        30.25F
6HR MIN TEMP:  29; 6HR MAX TEMP:  32;

FAIRCHILD AFB  MIX PCPN  28  28 100 CALM      30.20F
6HR MIN TEMP:  29; 6HR MAX TEMP:  29; 6HR PCP: TRACE;

COEURDALENE,ID CLOUDY    30  27  86 E3        30.23S
6HR MIN TEMP:  28; 6HR MAX TEMP:  30;

DEER PARK      CLOUDY    31  27  85 NE7       30.24F
6HR MIN TEMP:  26; 6HR MAX TEMP:  31;

$$

WAZ029>033-011300-
SOUTHEAST WASHINGTON

CITY           SKY/WX    TMP DP  RH WIND       PRES   REMARKS
PULLMAN        CLOUDY    32  28  85 E10       30.20F WCI  24
6HR MIN TEMP:  31; 6HR MAX TEMP:  32;

LEWISTON, ID   CLOUDY    34  30  85 E7        30.24F
6HR MIN TEMP:  33; 6HR MAX TEMP:  35;

WALLA WALLA    CLOUDY    35  32  88 S6        30.23F
6HR MIN TEMP:  35; 6HR MAX TEMP:  37;

PENDLETON, OR  CLOUDY    34  31  88 CALM      30.22S
6HR MIN TEMP:  33; 6HR MAX TEMP:  34;

$$


USA.gov is the U.S. government's official web portal to all federal, state and local government web resources and services.